When you browse on this site, cookies collect data to enhance your experience and personalize the content and advertising you see.
Visit our Privacy Policy to learn more. By continuing to use the site, you agree to this use of cookies and data.
  • In Lithuania
  • List of Countries
  • For 7 days
  • Water Temperature
  • Weather Map
  • Weather Widgets
  • user-avatar
    Login

    Hourly Weather Konjic

    Today, 18 February, Tuesday

    Time Temperature Precipitation Wind Pressure Humidity
    00:00 +6°C° 0 mm 1 mps 700 mmHg 56%
    01:00 +6°C° 0 mm 1 mps 700 mmHg 55%
    02:00 +6°C° 0 mm 1 mps 700 mmHg 55%
    03:00 +6°C° 0 mm 1 mps 700 mmHg 54%
    04:00 +5°C° 0 mm 0 mps 700 mmHg 53%
    05:00 +5°C° 0 mm 1 mps 700 mmHg 56%
    06:00 +5°C° 0 mm 1 mps 700 mmHg 58%
    07:00 +4°C° 0 mm 2 mps 700 mmHg 60%
    08:00 +5°C° 0 mm 2 mps 701 mmHg 61%
    09:00 +7°C° 0 mm 2 mps 701 mmHg 62%
    10:00 +8°C° 0 mm 2 mps 702 mmHg 63%
    11:00 +8°C° 0 mm 2 mps 702 mmHg 67%
    12:00 +8°C° 0 mm 3 mps 702 mmHg 71%
    13:00 +8°C° 0 mm 3 mps 701 mmHg 75%
    14:00 +8°C° 0 mm 3 mps 701 mmHg 77%
    15:00 +7°C° 0 mm 3 mps 701 mmHg 80%
    16:00 +7°C° 0 mm 2 mps 700 mmHg 83%
    17:00 +6°C° 0 mm 2 mps 701 mmHg 86%
    18:00 +5°C° 0 mm 2 mps 701 mmHg 88%
    19:00 +5°C° 0 mm 2 mps 701 mmHg 91%
    20:00 +4°C° 0 mm 2 mps 701 mmHg 91%
    21:00 +4°C° 0 mm 2 mps 701 mmHg 91%
    22:00 +4°C° 0 mm 2 mps 701 mmHg 91%
    23:00 +4°C° 0 mm 2 mps 700 mmHg 91%

    Tomorrow, 19 February, Wednesday

    Time Temperature Precipitation Wind Pressure Humidity
    00:00 +3°C° 0 mm 2 mps 700 mmHg 91%
    01:00 +3°C° 0 mm 2 mps 700 mmHg 91%
    02:00 +3°C° 0 mm 2 mps 700 mmHg 92%
    03:00 +3°C° 0 mm 1 mps 699 mmHg 92%
    04:00 +3°C° 0 mm 1 mps 699 mmHg 92%
    05:00 +3°C° 0 mm 1 mps 698 mmHg 92%
    06:00 +3°C° 0 mm 1 mps 698 mmHg 92%
    07:00 +3°C° 0 mm 1 mps 698 mmHg 92%
    08:00 +4°C° 0 mm 1 mps 698 mmHg 85%
    09:00 +6°C° 0 mm 1 mps 698 mmHg 78%
    10:00 +7°C° 0 mm 1 mps 698 mmHg 72%
    11:00 +8°C° 0 mm 1 mps 698 mmHg 71%
    12:00 +8°C° 0 mm 1 mps 698 mmHg 71%
    13:00 +9°C° 0 mm 1 mps 697 mmHg 70%
    14:00 +8°C° 0.2 mm 1 mps 697 mmHg 77%
    15:00 +7°C° 0.2 mm 1 mps 696 mmHg 84%
    16:00 +7°C° 0.2 mm 1 mps 696 mmHg 90%
    17:00 +6°C° 0.3 mm 1 mps 696 mmHg 92%
    18:00 +6°C° 0.3 mm 1 mps 696 mmHg 93%
    19:00 +5°C° 0.3 mm 1 mps 696 mmHg 94%
    20:00 +5°C° 0.8 mm 1 mps 696 mmHg 95%
    21:00 +4°C° 0.8 mm 1 mps 697 mmHg 95%
    22:00 +3°C° 0.8 mm 2 mps 697 mmHg 96%
    23:00 +3°C° 0.4 mm 2 mps 697 mmHg 95%

    Day after tomorrow, 20 February, Thursday

    Time Temperature Precipitation Wind Pressure Humidity
    00:00 +2°C° 0.4 mm 2 mps 697 mmHg 94%
    01:00 +1°C° 0.4 mm 3 mps 697 mmHg 93%
    02:00 +1°C° 0.4 mm 3 mps 698 mmHg 93%
    03:00 0°C° 0.4 mm 3 mps 698 mmHg 92%
    04:00 0°C° 0.4 mm 3 mps 698 mmHg 92%
    05:00 -1°C° 0.3 mm 3 mps 698 mmHg 92%
    06:00 -1°C° 0.3 mm 3 mps 698 mmHg 91%
    07:00 -2°C° 0.3 mm 3 mps 699 mmHg 91%
    08:00 -1°C° 0 mm 3 mps 699 mmHg 83%
    09:00 0°C° 0 mm 3 mps 700 mmHg 76%
    10:00 +1°C° 0 mm 3 mps 700 mmHg 68%
    11:00 +1°C° 0 mm 3 mps 700 mmHg 65%
    12:00 +2°C° 0 mm 3 mps 700 mmHg 62%
    13:00 +3°C° 0 mm 2 mps 700 mmHg 59%
    14:00 +3°C° 0 mm 2 mps 700 mmHg 60%
    15:00 +3°C° 0 mm 2 mps 700 mmHg 61%
    16:00 +3°C° 0 mm 2 mps 699 mmHg 62%
    17:00 +2°C° 0 mm 2 mps 700 mmHg 68%
    18:00 +1°C° 0 mm 1 mps 700 mmHg 74%
    19:00 0°C° 0 mm 1 mps 700 mmHg 80%
    20:00 0°C° 0 mm 1 mps 700 mmHg 79%
    21:00 0°C° 0 mm 1 mps 700 mmHg 79%
    22:00 0°C° 0 mm 1 mps 700 mmHg 79%
    23:00 0°C° 0 mm 1 mps 700 mmHg 77%

    21 February, Friday

    Time Temperature Precipitation Wind Pressure Humidity
    00:00 0°C° 0 mm 1 mps 700 mmHg 75%
    01:00 0°C° 0 mm 1 mps 700 mmHg 73%
    02:00 0°C° 0 mm 1 mps 700 mmHg 71%
    03:00 0°C° 0 mm 1 mps 700 mmHg 69%
    04:00 +1°C° 0 mm 1 mps 700 mmHg 67%
    05:00 +1°C° 0 mm 1 mps 700 mmHg 66%
    06:00 +1°C° 0 mm 1 mps 700 mmHg 64%
    07:00 +1°C° 0 mm 1 mps 700 mmHg 63%
    14:00 +10°C° 0 mm 1 mps 703 mmHg 53%
    15:00 +9°C° 0 mm 1 mps 702 mmHg 57%
    16:00 +9°C° 0 mm 1 mps 702 mmHg 61%
    17:00 +7°C° 0 mm 1 mps 703 mmHg 65%
    18:00 +6°C° 0 mm 1 mps 703 mmHg 69%
    19:00 +3°C° 0 mm 2 mps 703 mmHg 73%
    20:00 +3°C° 0 mm 2 mps 704 mmHg 75%
    21:00 +2°C° 0 mm 2 mps 704 mmHg 78%
    22:00 +2°C° 0 mm 2 mps 705 mmHg 80%
    23:00 +2°C° 0 mm 2 mps 705 mmHg 83%

    22 February, Saturday

    Time Temperature Precipitation Wind Pressure Humidity
    00:00 +1°C° 0 mm 2 mps 705 mmHg 86%
    01:00 +1°C° 0 mm 2 mps 705 mmHg 89%
    02:00 -1°C° 0 mm 2 mps 705 mmHg 90%
    03:00 -1°C° 0 mm 2 mps 705 mmHg 91%
    04:00 -1°C° 0 mm 2 mps 705 mmHg 92%
    05:00 -1°C° 0 mm 2 mps 705 mmHg 89%
    06:00 +1°C° 0 mm 1 mps 705 mmHg 87%
    07:00 +1°C° 0 mm 1 mps 705 mmHg 84%
    08:00 +3°C° 0 mm 1 mps 706 mmHg 75%
    09:00 +5°C° 0 mm 1 mps 706 mmHg 65%
    10:00 +7°C° 0 mm 1 mps 707 mmHg 55%
    11:00 +8°C° 0 mm 1 mps 707 mmHg 52%
    12:00 +9°C° 0 mm 1 mps 707 mmHg 48%
    13:00 +10°C° 0 mm 1 mps 706 mmHg 45%
    14:00 +10°C° 0 mm 1 mps 706 mmHg 49%
    15:00 +10°C° 0 mm 1 mps 706 mmHg 52%
    16:00 +9°C° 0 mm 1 mps 706 mmHg 56%
    17:00 +8°C° 0 mm 1 mps 705 mmHg 59%
    18:00 +6°C° 0 mm 1 mps 705 mmHg 62%
    19:00 +5°C° 0 mm 1 mps 705 mmHg 64%
    20:00 +4°C° 0 mm 1 mps 705 mmHg 62%
    21:00 +4°C° 0 mm 1 mps 705 mmHg 60%
    22:00 +4°C° 0 mm 1 mps 706 mmHg 58%
    23:00 +4°C° 0 mm 1 mps 706 mmHg 56%

    23 February, Sunday

    Time Temperature Precipitation Wind Pressure Humidity
    00:00 +4°C° 0 mm 1 mps 706 mmHg 53%
    01:00 +4°C° 0 mm 1 mps 705 mmHg 50%
    02:00 +5°C° 0 mm 1 mps 705 mmHg 48%
    03:00 +5°C° 0 mm 1 mps 705 mmHg 46%
    04:00 +5°C° 0 mm 1 mps 705 mmHg 44%
    05:00 +5°C° 0 mm 1 mps 705 mmHg 44%
    06:00 +5°C° 0 mm 1 mps 705 mmHg 43%
    07:00 +5°C° 0 mm 1 mps 705 mmHg 42%
    08:00 +8°C° 0 mm 1 mps 705 mmHg 41%
    09:00 +9°C° 0 mm 0 mps 706 mmHg 41%
    10:00 +12°C° 0 mm 0 mps 706 mmHg 40%
    11:00 +13°C° 0 mm 1 mps 706 mmHg 40%
    12:00 +14°C° 0 mm 1 mps 706 mmHg 40%
    13:00 +15°C° 0 mm 1 mps 705 mmHg 40%
    14:00 +15°C° 0 mm 1 mps 705 mmHg 46%
    15:00 +14°C° 0 mm 1 mps 704 mmHg 51%
    16:00 +13°C° 0 mm 1 mps 704 mmHg 57%
    17:00 +11°C° 0 mm 1 mps 704 mmHg 60%
    18:00 +9°C° 0 mm 1 mps 703 mmHg 64%
    19:00 +7°C° 0 mm 1 mps 703 mmHg 68%
    20:00 +7°C° 0 mm 1 mps 703 mmHg 67%
    21:00 +7°C° 0 mm 1 mps 703 mmHg 66%
    22:00 +6°C° 0 mm 1 mps 704 mmHg 65%
    23:00 +6°C° 0 mm 1 mps 703 mmHg 64%
    Show more